Wind_Speed
15 11 13 12 15 20 26 28 30 37 44 44 42 36 36 36 38 44 43 38 34 29
16 13 12 11 16 24 26 28 27 27 26 27 27 28 29 28 29 36 38 36 36 35
16 14 13 11 12 20 24 25 27 27 22 20 22 23 25 28 33 35 35 37 39 38
17 14 13 13 11 16 19 26 34 29 32 32 30 31 31 28 32 41 36 36 39 37
17 14 13 14 12 13 16 20 30 38 40 34 32 37 33 32 31 39 41 31 38 39
18 18 15 14 15 15 13 14 15 22 36 33 34 34 34 30 31 32 43 43 43 43
18 18 17 17 16 15 15 16 17 17 19 19 24 25 26 27 30 28 29 40 44 39
18 16 17 17 17 17 15 14 14 15 17 18 18 19 21 22 27 27 27 27 32 37
16 15 13 14 15 17 17 17 16 16 17 17 18 21 21 19 21 25 28 29 29 32
20 19 18 18 17 15 14 13 14 14 14 19 21 20 21 21 22 21 22 24 26 28
17 17 19 19 19 20 19 19 19 19 21 22 23 22 22 22 23 24 25 26 28 29
16 16 16 17 18 18 18 19 19 19 20 20 21 21 21 22 24 26 28 32 33 33
14 13 12 13 14 14 15 16 16 16 15 16 14 16 17 18 17 18 20 21 22 23
18 14 12 13 13 13 13 12 12 11 10 7 5 4 3 4 7 9 10 9 8 8
Wind_Direction
196 199 213 222 233 224 227 210 203 204 210 205 198 199 205 207 214 217 219 222 219 220
190 197 207 205 221 216 212 198 192 186 182 180 185 194 200 207 216 219 223 228 228 227
186 193 193 198 199 214 202 184 186 180 172 176 186 190 199 205 215 212 219 227 227 225
181 185 191 191 187 202 194 188 195 197 198 205 213 208 216 226 229 221 218 224 225 228
176 180 180 178 177 178 191 205 198 203 207 211 210 214 224 222 226 223 220 220 227 225
177 180 172 167 169 169 174 182 197 212 208 214 221 224 223 224 229 229 225 225 232 233
175 176 180 178 177 175 174 178 189 199 206 212 223 226 225 233 228 228 231 232 232 234
179 179 181 184 186 186 185 185 184 192 195 201 211 216 216 221 226 230 229 233 234 237
166 169 178 186 194 196 194 196 199 194 194 199 204 207 210 218 223 224 229 236 242 247
178 181 185 186 188 187 192 198 199 201 205 211 221 218 219 221 226 235 243 248 251 253
176 185 192 197 201 201 201 203 208 208 213 220 227 227 226 226 230 230 232 237 242 244
167 171 180 189 197 197 201 202 206 210 217 222 231 237 241 242 241 242 244 246 248 251
139 148 157 169 174 180 183 190 188 189 191 207 222 240 245 250 252 250 247 249 252 257
107 109 113 123 131 141 148 153 148 142 139 146 163 180 211 235 229 233 237 243 258 271
Height
1422 1425 1426 1427 1428 1429 1431 1435 1440 1444 1450 1457 1463 1476 1484 1491 1498 1503 1509 1514 1520 1524
1419 1422 1424 1426 1427 1428 1430 1434 1440 1444 1449 1457 1466 1474 1482 1488 1495 1500 1506 1510 1515 1519
1417 1421 1424 1426 1428 1428 1431 1434 1441 1445 1451 1457 1464 1472 1480 1485 1489 1495 1500 1505 1510 1514
1416 1419 1422 1425 1427 1429 1433 1436 1442 1446 1452 1458 1464 1470 1476 1480 1483 1489 1494 1499 1503 1507
1415 1419 1422 1425 1428 1430 1433 1437 1441 1445 1450 1456 1461 1467 1472 1476 1479 1483 1489 1494 1495 1501
1414 1418 1422 1425 1428 1431 1434 1437 1441 1445 1450 1454 1459 1463 1467 1472 1476 1479 1483 1487 1490 1494
1413 1417 1421 1425 1428 1432 1435 1438 1441 1445 1449 1453 1455 1459 1463 1467 1470 1474 1477 1480 1484 1489
1413 1417 1420 1424 1427 1430 1433 1437 1441 1444 1448 1451 1454 1457 1459 1462 1465 1468 1471 1474 1478 1481
1414 1418 1421 1424 1427 1430 1433 1435 1439 1442 1445 1449 1451 1452 1455 1459 1461 1464 1467 1470 1472 1474
1411 1414 1418 1422 1425 1428 1432 1435 1437 1440 1443 1443 1444 1449 1451 1454 1457 1460 1463 1464 1466 1467
1409 1413 1417 1420 1423 1425 1428 1431 1433 1436 1438 1440 1442 1445 1447 1450 1453 1455 1454 1456 1457 1458
1408 1410 1413 1416 1420 1422 1424 1426 1428 1431 1434 1435 1436 1439 1442 1444 1445 1445 1446 1448 1449 1450
1406 1408 1412 1415 1417 1419 1421 1422 1424 1426 1428 1430 1432 1434 1436 1438 1439 1439 1440 1441 1441 1442
1408 1409 1415 1415 1417 1419 1420 1421 1423 1425 1426 1429 1429 1431 1432 1434 1435 1435 1436 1436 1437 1437